Saffet Bey — TCUZ — position and weather

sailwx.info

Track history (hours):
 
Tides and Currents Weather Stations Pressure Air Temp Water Temp Dewpoint Dewpoint Depression Visibility Wind Speed Wind Dir Waves Ship Positions

Saffet Bey

Last reported at 2014-Oct-27 10:31 UTC. Time now 2014-Oct-31 21:40 UTC.
Position N 36°55' E 024°12'.

Length 164 m; draft 6.9 m.

Type: Cargo ship. MMSI: 271000419.

Date/timePositionNaut miles runAvg speedWind from/ knotsBaromVisibWave heightAir tempDewpointWater temp
2014-Oct-27 10:31N 36°55' E 024°12'2015.7
2014-Oct-27 09:16N 37°06' E 024°33'1115.3
2014-Oct-27 08:33N 37°12' E 024°44'1615.8
2014-Oct-27 07:32N 37°22' E 025°00'1616.1
2014-Oct-27 06:33N 37°32' E 025°16'1615.5
2014-Oct-27 05:30N 37°43' E 025°31'0 0.0
2014-Oct-26 08:19N 37°43' E 025°31'1314.0
2014-Oct-26 07:22N 37°34' E 025°18'1214.6
2014-Oct-26 06:33N 37°26' E 025°07'1515.0
2014-Oct-26 05:33N 37°17' E 024°52'1414.3
2014-Oct-26 04:33N 37°08' E 024°38'1514.6
2014-Oct-26 03:33N 36°60' E 024°23'1414.1
2014-Oct-26 02:33N 36°52' E 024°08'  
2014-Oct-20 11:19N 36°23' E 022°26'7414.7
2014-Oct-20 06:19N 36°45' E 023°53'1715.8
2014-Oct-20 05:14N 36°55' E 024°11'4415.6
2014-Oct-20 02:26N 37°20' E 024°56'1415.2
2014-Oct-20 01:29N 37°28' E 025°11'37 0.9
2014-Oct-18 09:12N 37°54' E 025°44'914.7
2014-Oct-18 08:33N 37°47' E 025°36'1514.6
2014-Oct-18 07:33N 37°37' E 025°22'1514.9
2014-Oct-18 06:33N 37°27' E 025°08'1514.8
2014-Oct-18 05:33N 37°18' E 024°54'1514.6
2014-Oct-18 04:33N 37°09' E 024°39'1614.3
2014-Oct-18 03:26N 37°00' E 024°22'3114.0
2014-Oct-18 01:12N 36°43' E 023°50'1214.1
2014-Oct-18 00:21N 36°37' E 023°37'1214.3
2014-Oct-17 23:30N 36°30' E 023°25'  
Track history (hours):
 
Tides and Currents Weather Stations Pressure Air Temp Water Temp Dewpoint Dewpoint Depression Visibility Wind Speed Wind Dir Waves Ship Positions

Saffet Bey

Last reported at 2014-Oct-27 10:31 UTC. Time now 2014-Oct-31 21:40 UTC.
Position N 36°55' E 024°12'.

Length 164 m; draft 6.9 m.

Type: Cargo ship. MMSI: 271000419.

Date/timePositionNaut miles runAvg speedWind from/ knotsBaromVisibWave heightAir tempDewpointWater temp
2014-Oct-27 10:31N 36°55' E 024°12'2015.7
2014-Oct-27 09:16N 37°06' E 024°33'1115.3
2014-Oct-27 08:33N 37°12' E 024°44'1615.8
2014-Oct-27 07:32N 37°22' E 025°00'1616.1
2014-Oct-27 06:33N 37°32' E 025°16'1615.5
2014-Oct-27 05:30N 37°43' E 025°31'0 0.0
2014-Oct-26 08:19N 37°43' E 025°31'1314.0
2014-Oct-26 07:22N 37°34' E 025°18'1214.6
2014-Oct-26 06:33N 37°26' E 025°07'1515.0
2014-Oct-26 05:33N 37°17' E 024°52'1414.3
2014-Oct-26 04:33N 37°08' E 024°38'1514.6
2014-Oct-26 03:33N 36°60' E 024°23'1414.1
2014-Oct-26 02:33N 36°52' E 024°08'  
2014-Oct-20 11:19N 36°23' E 022°26'7414.7
2014-Oct-20 06:19N 36°45' E 023°53'1715.8
2014-Oct-20 05:14N 36°55' E 024°11'4415.6
2014-Oct-20 02:26N 37°20' E 024°56'1415.2
2014-Oct-20 01:29N 37°28' E 025°11'37 0.9
2014-Oct-18 09:12N 37°54' E 025°44'914.7
2014-Oct-18 08:33N 37°47' E 025°36'1514.6
2014-Oct-18 07:33N 37°37' E 025°22'1514.9
2014-Oct-18 06:33N 37°27' E 025°08'1514.8
2014-Oct-18 05:33N 37°18' E 024°54'1514.6
2014-Oct-18 04:33N 37°09' E 024°39'1614.3
2014-Oct-18 03:26N 37°00' E 024°22'3114.0
2014-Oct-18 01:12N 36°43' E 023°50'1214.1
2014-Oct-18 00:21N 36°37' E 023°37'1214.3
2014-Oct-17 23:30N 36°30' E 023°25'  

Dump ship's entire track history